KUIPER-00197

导读 | 豆包AI

KUIPER-00197是亚马逊柯伊伯(Kuiper)卫星星座中的一颗低轨宽带卫星,于2026年2月12日由法国阿丽亚娜空间公司通过阿丽亚娜6号火箭发射。该卫星属于柯伊伯全球互联网星座项目,旨在为全球提供低延迟高速宽带互联网服务,目前美国联邦通信委员会已批准亚马逊扩展该星座至约7700颗卫星,KUIPER-00197是星座组网部署过程中的重要组成部分。

Basic Information
目录编号:
67769
目录名称:
KUIPER-00197
国际标识:
2026-030F
轨道中心:
EARTH
卫星名称:
KUIPER-00197
卫星全名:
KUIPER-00197
卫星状态:
在轨 (已飞行102 天)
发射日期:
2026-02-12 UTC
国别 :
美国 (US)
星等 :
--
Orbit Information
数据来源 国际轨道数据
星历时间: 2026-05-24T12:00:02+0800
1天前
查看轨道信息
半长轴: 6916.841km
偏心率: 0.0004629
轨道倾角: 51.896°
近地点辐角 349.882°
升交点赤经 215.617°
平近点角 50.175°
近地点: 535.502km
远地点: 541.906km
周期: 95.416分钟
每日圈数: 15.091803
Detailed Information
使用方式:
暂无
2D Orbit Map
3D Orbit Map
Orbit Altitude Analysis Chart
Orbit Inclination Analysis Chart
Orbit Comprehensive Analysis Chart
View Comprehensive Chart